Regional Weather Roundup
Issued by NWS

Home | Current Version | Previous Version | Graphics & Text | Print | Product List | Glossary On
Versions: 1 2 3 4 5 6 7 8 9 10 11 12 13 14 15 16 17 18 19 20 21 22 23 24 25 26 27 28 29 30 31 32 33 34 35 36 37 38 39 40 41 42 43 44 45 46 47 48 49 50
000
ASUS44 KMEG 250010
RWRTN
TENNESSEE HOURLY STATE WEATHER ROUNDUP
NATIONAL WEATHER SERVICE MEMPHIS TN
600 PM CST SAT JAN 24 2015

TNZ002-004-019-021-049-052-054-088>092-250100-
WEST TENNESSEE

CITY           SKY/WX    TMP DP  RH WIND       PRES   REMARKS
MEMPHIS INTL   PTCLDY    50  33  52 SW6       29.93R
NWS MEMPHIS      N/A     50 N/A N/A MISG        N/A
JACKSON        CLEAR     42  24  49 SW5       29.90R
DYERSBURG      CLEAR     45  23  42 SW6       29.91S
UNION CITY     CLEAR     39  30  70 SW5       29.87S
PARIS          CLEAR     41  28  60 W7        29.88R
LEXINGTON      CLEAR     43  28  56 SW7       29.89R
SAVANNAH       CLEAR     45  30  57 S3        29.93R
$$

TNZ008-025-027-028-033-062-065-066-250100-
NORTH MIDDLE TENNESSEE

CITY           SKY/WX    TMP DP  RH WIND       PRES   REMARKS
NASHVILLE      CLEAR     44  32  62 SW6       29.89R
CLARKSVILLE    CLEAR     47  29  49 SW3       29.86R
SMYRNA         CLEAR     41  32  70 S3        29.91R
COOKEVILLE     CLEAR     37  30  75 SW5       29.88R WCI  34
CROSSVILLE     CLEAR     37  28  70 W7        29.87R WCI  32
$$

TNZ061-075-076-078-094-096-097-250100-
SOUTH MIDDLE TENNESSEE

CITY           SKY/WX    TMP DP  RH WIND       PRES   REMARKS
FAYETTEVILLE   CLEAR     37  28  70 MISG      29.92S
TULLAHOMA      CLEAR     37  28  70 SW5       29.92R WCI  34
WINCHESTER     CLEAR     37  30  75 CALM      29.93R
MCMINNVILLE    CLEAR     39  30  70 SW7       29.90R WCI  34
COLUMBIA         N/A     41  36  81 S5        29.89R
SHELBYVILLE    CLEAR     39  34  81 S7        29.92R WCI  34
$$

TNZ017-018-042-046-047-250100-
NORTHEAST TENNESSEE

CITY           SKY/WX    TMP DP  RH WIND       PRES   REMARKS
TRI CITIES     PTCLDY    33  28  81 SW8       29.83R WCI  26
ELIZABETHTON   PTCLDY    30  27  86 W6        29.83R WCI  24
$$

TNZ012-013-036-069-073-074-250100-
CENTRAL EAST TENNESSEE

CITY           SKY/WX    TMP DP  RH WIND       PRES   REMARKS
KNOXVILLE      CLEAR     38  26  62 SW12      29.89R WCI  30
OAK RIDGE      FAIR      42  26  53 SW3       29.89R
GATLINBURG     CLEAR     36  27  69 S3        29.88R
MORRISTOWN     CLEAR     37  27  65 SW9       29.85R WCI  31
$$

TNZ083-085-099-250100-
SOUTHEAST TENNESSEE

CITY           SKY/WX    TMP DP  RH WIND       PRES   REMARKS
CHATTANOOGA    CLEAR     44  27  51 S5        29.92R
$$

SKY/WX REPORTED AS FAIR MEANS FEW OR NO CLOUDS BELOW
12 THOUSAND FEET.



USA.gov is the U.S. government's official web portal to all federal, state and local government web resources and services.